Regional Weather Roundup
Issued by NWS

Home | Current Version | Previous Version | Text Only | Print | Product List | Glossary Off
Versions: 1 2 3 4 5 6 7 8 9 10 11 12 13 14 15 16 17 18 19 20 21 22 23 24 25 26 27 28 29 30 31 32 33 34 35 36 37 38 39 40 41 42 43 44 45 46 47 48 49 50

000
ASUS43 KBIS 251610
RWRND

NORTH DAKOTA REGIONAL WEATHER ROUNDUP
NATIONAL WEATHER SERVICE BISMARCK ND
1100 AM CDT MON SEP 25 2017

NOTE: "FAIR" INDICATES FEW OR NO CLOUDS BELOW 12,000 FEET WITH NO
SIGNIFICANT WEATHER AND/OR OBSTRUCTIONS TO VISIBILITY.


NDZ001>003-009>011-017-251700-
NORTHWEST NORTH DAKOTA

CITY           SKY/WX    TMP DP  RH WIND       PRES   REMARKS
WILLISTON      CLOUDY    48  44  86 S3        30.17R
MINOT          CLOUDY    50  45  83 E7        30.17R
MINOT AFB      CLOUDY    49  45  87 SE8       30.16
$$

NDZ018>021-031>035-040>046-251700-
SOUTHWEST NORTH DAKOTA

CITY           SKY/WX    TMP DP  RH WIND       PRES   REMARKS
BISMARCK       CLOUDY    51  46  83 NE3       30.16S
DICKINSON      LGT RAIN  44  43  96 W3        30.15S FOG
GARRISON         N/A     49  44  83 SE3       30.16R
HETTINGER ARPT CLOUDY    44  38  79 CALM      30.17S
$$

NDZ004>008-012>016-024-026-027-054-251700-
NORTHEAST NORTH DAKOTA

CITY           SKY/WX    TMP DP  RH WIND       PRES   REMARKS
GRAND FORKS    CLOUDY    50  46  86 N13       30.13R
GRND FRKS AFB  CLOUDY    49  44  83 N10       30.14R
DEVILS LAKE    CLOUDY    48  41  76 N9        30.16S
$$

NDZ022-023-025-028>030-036>039-047>053-251700-
SOUTHEAST NORTH DAKOTA

CITY           SKY/WX    TMP DP  RH WIND       PRES   REMARKS
FARGO          CLOUDY    50  49  96 N12       30.10S
JAMESTOWN      CLOUDY    49  43  80 N12       30.13S
$$





USA.gov is the U.S. government's official web portal to all federal, state and local government web resources and services.